Wind_Speed
58 61 61 62 67 72 78 81 86 88 88 89 90 92 96 102 107 111 110 105 106 106 108 109 107 101 98 96 95 91 89 81 75 73 71 70 66 63 61 61 62 62 62
63 67 66 67 73 79 82 85 89 90 90 90 91 96 101 107 110 108 103 103 104 105 105 101 97 97 93 87 84 80 78 72 68 65 67 65 62 59 57 58 58 56 57
63 66 70 72 80 83 86 89 92 90 92 94 98 103 107 109 105 102 101 104 105 106 102 98 94 91 87 83 77 74 69 66 64 62 61 60 59 55 54 52 52 51 53
66 70 73 79 85 88 89 95 92 93 95 98 104 108 106 102 102 104 103 104 100 102 98 93 88 84 80 78 74 67 65 63 62 59 56 55 53 50 47 50 49 48 48
75 78 79 85 87 91 95 92 94 96 100 106 110 105 103 102 104 107 105 101 99 95 93 88 84 79 77 74 70 65 62 60 58 57 53 51 49 49 48 46 47 46 44
81 85 87 89 91 96 95 96 98 101 107 109 107 107 105 105 105 108 108 101 98 95 89 85 84 78 73 69 67 64 60 57 55 54 50 48 46 47 45 42 42 43 42
87 90 92 93 97 96 98 101 104 109 110 109 108 106 105 106 110 109 104 98 97 94 89 87 83 76 71 68 64 61 58 55 53 52 50 47 46 44 40 39 40 38 38
89 92 95 96 96 99 102 106 111 112 111 111 109 109 108 106 104 100 97 95 92 89 86 81 77 73 69 66 62 59 54 52 50 47 46 45 44 42 40 37 35 36 37
93 97 94 94 98 101 108 111 114 114 114 111 110 109 107 104 99 96 94 92 91 87 81 77 73 69 65 62 60 57 53 49 46 44 44 44 42 39 38 34 35 35 35
97 96 96 98 101 108 114 116 118 115 113 110 111 110 106 101 97 96 93 89 85 80 76 72 69 66 62 60 57 54 51 47 44 42 42 41 38 36 36 34 34 34 33
101 98 99 103 109 113 118 118 119 120 119 119 115 110 104 99 96 92 84 80 78 75 72 69 66 63 59 57 54 51 48 44 42 41 41 38 33 32 32 32 32 32 30
101 101 104 109 113 118 121 122 120 118 118 116 113 107 102 95 92 87 82 80 76 72 69 66 63 60 56 54 51 47 45 43 40 40 39 35 31 30 29 30 30 29 28
102 105 110 114 120 122 123 122 120 117 115 112 107 102 97 91 84 81 79 77 74 70 68 64 61 58 54 51 49 45 41 39 38 38 37 33 30 29 29 29 28 28 26
106 110 114 119 123 124 122 119 117 115 112 108 103 97 91 87 81 78 76 75 73 68 64 61 58 55 50 47 44 42 40 37 35 36 34 32 29 28 28 27 26 26 25
110 115 118 123 125 121 118 116 114 113 108 103 99 93 86 81 76 73 70 68 67 64 60 57 54 51 47 44 41 39 38 34 33 33 31 30 28 26 26 26 24 23 24
115 119 123 125 122 118 115 113 111 107 105 101 96 88 83 77 73 69 66 64 61 60 57 55 52 48 45 42 39 37 37 34 32 31 30 29 27 25 25 24 23 22 22
120 121 124 122 117 114 113 109 105 102 98 93 89 84 80 76 72 68 64 60 55 54 53 52 50 47 43 41 38 36 35 34 32 30 28 27 26 24 23 22 21 21 21
123 124 120 117 114 110 107 103 98 91 85 83 83 82 77 73 69 65 61 58 55 51 50 49 46 44 41 39 37 35 34 33 32 29 28 25 24 23 22 21 20 19 20
122 120 116 113 110 107 103 96 90 84 79 76 75 75 71 67 65 61 58 57 55 52 49 47 46 42 40 38 36 34 32 32 30 28 26 24 23 22 21 20 19 18 20
119 115 112 110 107 102 94 88 82 80 78 75 73 71 66 63 62 60 58 56 54 52 50 47 44 41 39 37 35 32 31 29 28 27 26 24 22 21 20 20 19 18 19
114 112 108 104 98 92 86 81 79 75 73 69 68 68 61 58 60 59 59 57 54 51 48 46 44 40 39 38 36 33 30 28 27 26 25 23 22 21 20 19 19 19 18
109 105 102 95 89 85 81 77 74 72 70 67 62 66 62 58 58 57 55 53 52 49 47 44 42 39 36 34 33 32 30 27 26 24 23 22 22 22 21 20 20 20 20
104 99 93 87 83 79 75 74 71 69 66 63 60 61 64 60 57 55 52 49 47 47 44 42 40 38 35 33 31 30 29 28 24 24 23 22 22 22 22 22 21 21 21
98 93 88 82 79 75 72 70 68 65 64 64 61 59 59 60 56 53 50 47 45 43 41 39 38 37 35 32 31 29 28 27 25 24 24 23 22 23 23 23 23 22 21
91 86 82 78 74 72 70 68 65 63 63 64 65 60 58 56 52 50 46 44 42 40 39 38 35 34 34 32 30 29 28 28 26 24 24 23 23 22 23 23 23 23 23
82 79 76 74 72 69 66 64 64 63 62 61 61 59 55 54 50 47 45 43 40 38 37 36 34 33 32 32 29 29 28 25 26 25 25 24 23 22 22 23 23 24 24
Wind_Direction
304 307 306 305 308 309 311 311 311 311 311 310 310 311 310 309 309 310 311 311 310 309 311 311 310 308 308 307 305 305 302 300 299 296 294 292 290 287 284 279 275 271 267
308 308 307 308 308 310 310 311 313 312 312 312 311 310 310 310 310 311 311 310 310 311 312 311 311 309 308 304 303 302 300 301 300 296 294 292 290 288 284 280 275 270 265
307 308 309 312 311 310 310 312 313 312 312 312 311 311 312 311 312 312 314 313 314 312 310 310 310 311 310 305 305 302 304 303 301 298 295 293 292 290 287 281 275 271 265
309 311 313 314 312 311 311 313 312 312 311 311 312 312 313 313 313 314 314 313 311 311 310 310 312 313 310 308 306 306 306 304 301 299 296 294 293 292 288 284 279 273 266
313 314 314 313 312 313 312 311 312 312 312 314 314 314 314 315 315 314 315 317 315 312 312 313 314 313 311 309 308 309 306 304 302 301 300 298 297 294 289 284 280 273 265
314 315 315 313 313 313 312 312 312 314 315 314 316 318 318 318 317 318 319 317 316 314 314 316 314 312 311 311 310 308 307 305 303 301 299 298 297 296 293 287 280 274 267
314 314 314 313 314 312 312 313 314 315 316 318 318 317 317 317 319 319 316 317 315 313 316 314 312 313 314 312 309 308 307 305 304 303 303 304 303 298 293 287 280 275 269
314 313 313 312 312 313 313 314 315 318 319 318 318 317 317 316 315 316 316 315 314 315 313 312 312 314 313 311 309 308 307 306 304 302 303 303 302 298 294 289 281 278 275
313 314 312 311 312 314 315 317 319 319 319 319 317 316 316 316 315 315 316 315 315 314 314 314 314 314 312 310 309 308 308 306 303 303 304 305 303 297 293 288 285 281 275
313 312 311 313 314 316 319 319 320 320 318 316 316 317 316 316 317 316 317 317 313 313 314 314 313 312 312 310 310 309 308 306 304 304 305 304 300 295 292 289 285 282 279
314 312 314 315 317 319 318 319 320 320 320 319 318 318 317 318 317 316 316 315 315 315 315 314 313 313 312 311 310 309 307 306 305 306 307 304 297 293 290 288 285 284 280
314 314 316 317 317 318 320 320 319 319 317 316 316 316 317 317 316 316 317 315 316 316 315 315 314 314 313 311 310 310 309 308 307 308 308 304 299 294 293 290 286 283 280
314 316 316 317 318 318 319 319 317 316 315 315 315 316 316 315 316 317 318 316 316 317 316 315 314 313 313 311 311 311 311 308 307 309 308 304 300 297 295 292 288 285 280
315 315 315 316 317 318 318 317 316 315 315 315 315 315 316 316 317 318 317 316 316 316 314 314 313 313 312 311 310 309 310 308 307 308 307 303 299 296 294 292 288 284 279
314 314 314 315 317 317 317 316 315 315 314 314 314 315 315 316 317 317 316 316 315 314 314 313 312 312 312 310 310 309 309 307 306 307 305 301 298 295 292 292 286 281 276
313 314 314 316 317 316 316 316 315 315 314 314 314 315 315 316 316 316 316 315 316 315 315 314 314 314 313 312 311 309 309 307 306 307 305 302 299 296 293 290 286 279 272
313 313 315 315 315 316 316 315 314 314 314 313 313 313 315 317 317 316 316 315 317 317 316 315 315 314 313 312 311 310 308 307 304 306 305 302 299 297 293 287 283 277 271
313 315 315 315 316 315 315 314 314 313 313 313 313 313 315 315 315 315 316 316 317 318 316 315 314 314 313 312 311 310 306 305 303 303 303 301 298 297 293 286 282 274 268
315 314 314 315 315 315 314 314 314 313 313 312 311 310 313 313 313 314 315 315 315 316 316 315 315 315 314 312 311 310 306 304 303 302 301 299 297 294 292 286 280 274 266
314 314 315 315 315 314 313 313 313 313 313 313 312 311 313 313 313 313 313 313 313 312 312 312 312 313 312 310 309 308 304 303 304 301 300 298 295 292 291 286 280 273 266
314 314 314 314 313 312 313 313 312 312 311 311 310 310 312 312 312 312 312 312 312 310 309 307 308 309 310 311 310 308 305 302 302 299 297 295 292 291 292 284 281 273 265
313 314 314 312 313 313 312 312 311 311 311 311 311 310 311 312 311 310 309 309 308 307 307 305 305 304 304 305 306 307 306 303 302 299 297 295 292 291 290 286 278 274 266
313 313 313 313 313 312 312 311 312 312 311 310 311 309 310 311 309 309 307 306 304 304 305 305 304 302 301 302 304 304 303 300 298 296 295 293 292 291 290 286 277 273 266
314 313 313 312 312 312 312 312 312 312 311 310 310 309 309 308 309 307 306 304 302 302 302 302 301 300 301 301 303 303 301 298 296 294 294 292 289 287 286 283 276 269 267
312 312 312 312 313 312 313 312 312 311 310 310 310 310 309 308 309 308 306 305 304 301 299 300 299 298 297 298 299 299 298 297 295 293 292 290 287 285 285 280 274 268 264
312 312 312 312 312 312 312 312 311 310 309 308 308 308 308 307 308 307 306 304 303 301 299 298 298 296 295 296 297 296 295 293 292 292 290 287 286 284 280 275 270 266 262
Height
10552 10544 10537 10529 10523 10513 10503 10492 10481 10468 10456 10444 10432 10419 10406 10391 10375 10358 10342 10325 10308 10291 10273 10256 10236 10221 10206 10190 10177 10168 10157 10148 10141 10129 10119 10111 10109 10106 10103 10101 10098 10097 10098
10541 10531 10524 10518 10507 10496 10486 10475 10463 10449 10436 10425 10412 10399 10385 10369 10352 10336 10319 10301 10283 10265 10247 10228 10212 10197 10182 10167 10157 10145 10136 10125 10117 10109 10097 10091 10087 10084 10081 10076 10073 10074 10075
10531 10520 10511 10503 10490 10479 10468 10458 10446 10432 10418 10404 10391 10377 10362 10344 10325 10310 10294 10276 10257 10239 10223 10205 10187 10172 10157 10142 10134 10123 10112 10103 10094 10089 10080 10072 10065 10063 10058 10055 10052 10053 10052
10513 10505 10496 10486 10472 10459 10448 10436 10424 10411 10398 10385 10369 10352 10336 10319 10298 10283 10269 10252 10234 10216 10198 10182 10167 10154 10137 10124 10111 10102 10092 10084 10075 10068 10064 10055 10048 10044 10041 10034 10032 10033 10032
10494 10487 10480 10467 10453 10440 10428 10416 10404 10390 10376 10360 10343 10327 10310 10293 10275 10256 10242 10225 10206 10188 10173 10158 10144 10132 10117 10104 10091 10082 10075 10066 10057 10050 10044 10037 10032 10026 10023 10020 10014 10013 10016
10475 10465 10457 10445 10433 10419 10404 10393 10379 10365 10351 10335 10315 10297 10283 10268 10252 10232 10214 10201 10182 10166 10152 10136 10123 10111 10098 10084 10073 10064 10058 10049 10040 10034 10028 10023 10017 10010 10005 10003 9999 9997 9999
10458 10446 10435 10422 10409 10394 10381 10367 10354 10340 10323 10306 10290 10277 10263 10246 10226 10210 10195 10178 10159 10144 10129 10117 10103 10091 10079 10067 10058 10049 10040 10032 10025 10017 10010 10006 9999 9995 9991 9988 9984 9983 9983
10443 10429 10417 10401 10387 10373 10360 10346 10331 10314 10298 10281 10265 10250 10237 10223 10206 10187 10172 10156 10137 10121 10110 10099 10085 10073 10061 10050 10042 10033 10026 10016 10011 10005 9998 9992 9987 9981 9977 9974 9972 9970 9968
10422 10409 10397 10383 10370 10355 10340 10322 10305 10290 10273 10257 10241 10228 10213 10198 10179 10163 10147 10132 10115 10101 10090 10077 10065 10056 10046 10035 10025 10016 10009 10003 9997 9991 9984 9978 9973 9969 9965 9963 9960 9957 9956
10402 10390 10377 10362 10349 10332 10313 10298 10281 10266 10252 10236 10217 10200 10186 10171 10154 10137 10123 10109 10096 10084 10071 10060 10048 10040 10030 10020 10011 10002 9995 9988 9983 9978 9973 9967 9962 9958 9954 9951 9948 9947 9945
10382 10368 10353 10337 10323 10306 10292 10276 10258 10237 10218 10202 10188 10174 10160 10145 10128 10115 10103 10089 10077 10064 10053 10044 10032 10023 10015 10006 9997 9989 9981 9976 9970 9964 9960 9955 9952 9948 9944 9941 9938 9936 9934
10358 10344 10330 10315 10302 10285 10267 10251 10233 10217 10202 10185 10168 10152 10138 10126 10109 10093 10081 10067 10057 10047 10036 10027 10017 10008 10000 9991 9984 9977 9968 9962 9958 9952 9948 9944 9941 9938 9934 9931 9928 9926 9925
10336 10323 10308 10292 10276 10261 10245 10226 10208 10194 10179 10163 10147 10132 10116 10105 10093 10076 10060 10048 10037 10028 10018 10010 10001 9994 9987 9978 9970 9964 9958 9953 9947 9942 9937 9933 9931 9928 9924 9921 9919 9917 9916
10315 10301 10286 10271 10256 10239 10223 10206 10186 10166 10153 10138 10123 10110 10096 10083 10072 10060 10046 10031 10020 10012 10005 9995 9987 9980 9974 9966 9960 9953 9947 9943 9938 9933 9928 9924 9922 9919 9916 9913 9911 9909 9908
10294 10280 10266 10250 10234 10217 10199 10182 10164 10144 10126 10113 10098 10088 10077 10066 10056 10044 10033 10022 10010 10000 9991 9983 9975 9968 9962 9955 9949 9942 9937 9933 9929 9925 9921 9917 9914 9911 9908 9905 9903 9902 9900
10274 10259 10242 10226 10209 10192 10175 10157 10137 10122 10104 10087 10072 10064 10054 10048 10038 10028 10018 10008 9998 9985 9976 9968 9961 9954 9949 9943 9937 9932 9927 9923 9919 9916 9912 9908 9905 9903 9900 9898 9895 9894 9893
10250 10233 10217 10200 10183 10166 10148 10133 10119 10099 10083 10067 10053 10043 10033 10025 10016 10008 10002 9993 9986 9976 9965 9956 9949 9943 9937 9932 9927 9922 9917 9913 9910 9907 9903 9900 9896 9895 9893 9890 9888 9887 9886
10222 10205 10188 10171 10155 10139 10123 10107 10094 10082 10069 10051 10034 10023 10015 10007 10000 9991 9984 9975 9969 9962 9955 9947 9940 9933 9927 9922 9917 9912 9908 9904 9901 9898 9895 9892 9889 9887 9885 9883 9882 9881 9880
10197 10179 10162 10146 10128 10113 10098 10083 10069 10058 10049 10039 10025 10011 10002 9995 9984 9977 9970 9962 9954 9948 9942 9935 9928 9923 9917 9911 9907 9902 9899 9895 9891 9888 9886 9884 9882 9880 9878 9876 9875 9874 9874
10167 10151 10136 10120 10106 10090 10076 10062 10051 10039 10026 10015 10005 9994 9987 9978 9968 9961 9955 9949 9942 9935 9929 9922 9918 9913 9908 9903 9898 9894 9890 9886 9883 9880 9877 9875 9874 9873 9871 9869 9868 9868 9868
10141 10127 10110 10095 10081 10067 10054 10042 10030 10020 10010 10001 9989 9977 9972 9966 9955 9947 9939 9933 9927 9922 9916 9911 9906 9902 9896 9891 9886 9883 9880 9877 9874 9872 9869 9868 9866 9865 9864 9863 9862 9861 9861
10114 10100 10085 10070 10058 10044 10032 10021 10011 10000 9991 9982 9973 9959 9954 9949 9942 9935 9928 9920 9914 9909 9903 9899 9895 9891 9888 9884 9879 9874 9870 9868 9865 9863 9861 9860 9858 9857 9856 9855 9855 9854 9854
10086 10072 10059 10048 10036 10025 10014 10001 9992 9982 9972 9964 9958 9948 9937 9932 9927 9920 9914 9909 9902 9896 9891 9886 9882 9878 9876 9872 9869 9866 9862 9859 9857 9855 9854 9852 9850 9849 9848 9848 9847 9847 9847
10059 10048 10036 10026 10014 10003 9993 9983 9973 9964 9953 9944 9939 9933 9925 9916 9911 9905 9900 9894 9889 9884 9880 9875 9870 9867 9864 9861 9858 9855 9852 9850 9848 9847 9845 9844 9843 9841 9840 9839 9839 9839 9839
10037 10025 10013 10003 9994 9983 9973 9963 9954 9946 9937 9927 9918 9914 9909 9901 9896 9890 9884 9879 9875 9871 9866 9863 9860 9856 9853 9850 9848 9845 9843 9840 9839 9838 9836 9835 9835 9833 9832 9831 9830 9831 9831
10016 10005 9995 9984 9974 9965 9956 9946 9938 9930 9921 9914 9905 9897 9892 9885 9880 9875 9870 9866 9862 9858 9855 9851 9848 9846 9842 9840 9838 9835 9833 9832 9830 9828 9827 9826 9825 9824 9823 9822 9822 9822 9822